[[{"header":{"parameterUnit":"m.s-1","parameterCategory":1,"la1":30.2991,"la2":30.254,"lo1":-89.0895,"lo2":-89.0444,"dy":0.0017,"dx":0.0017,"nx":28,"ny":28,"refTime":"2025-04-30T03:00:00:Z","depth":0,"parameterNumber":2,"parameterNumberName":"U-component_of_WINDS"},"data":[0,0,0,0,0,0,0,0,0,0,0,0,0,0,0,0,0,0,0,0,0,0,0,0,0,0,0,0,0,0,0,0,0,0,0,0,0,0,0,0,0,0,0,0,0,0,0,0,0,0,0,0,0,0,0,0,0,0,-2.5804,-2.5806,0,-2.5964,-2.5966,-2.5968,-2.6012,-2.6011,-2.601,-2.601,-2.6172,-2.6177,-2.6182,0,0,0,0,0,0,0,0,0,0,0,0,0,-2.5533,-2.5538,-2.5804,-2.5806,-2.5808,-2.5964,-2.5966,-2.5969,-2.6012,-2.6011,-2.601,-2.6009,-2.617,-2.6176,-2.6182,0,0,0,0,0,0,0,0,0,0,0,0,0,-2.5668,-2.554,-2.5803,-2.5849,-2.5854,-2.5964,-2.5966,-2.5969,-2.6013,-2.6011,-2.601,-2.6009,-2.6168,-2.6175,-2.6183,-2.6258,0,0,-2.6207,-2.621,0,0,0,0,0,0,0,0,-2.566,-2.5678,-2.584,-2.5846,-2.5852,-2.5967,-2.5931,-2.6066,-2.6013,-2.5952,-2.601,-2.6008,-2.6104,-2.6117,-2.615,-2.6266,-2.6273,-2.6207,-2.6212,-2.6215,-2.6218,0,0,0,0,0,0,0,-2.5651,-2.5671,-2.5867,-2.5842,-2.585,-2.586,-2.5878,-2.5956,-2.6034,-2.5958,-2.5961,-2.598,-2.6107,-2.6143,-2.6154,-2.6275,-2.6207,-2.6214,-2.6219,-2.6222,-2.6461,-2.6462,0,0,0,0,0,0,-2.5634,-2.5663,-2.5862,-2.5872,-2.5751,-2.5866,-2.5886,-2.5931,-2.6033,-2.6048,-2.5981,-2.5981,-2.613,-2.6145,-2.616,-2.6255,-2.6215,-2.6223,-2.6227,-2.6459,-2.6461,-2.6463,0,0,0,0,0,0,-2.5628,-2.5651,-2.5856,-2.5769,-2.5796,-2.5872,-2.5923,-2.5935,-2.5971,-2.6051,-2.6065,-2.6003,-2.613,-2.6149,-2.6234,-2.6261,-2.6226,-2.6233,-2.6457,-2.646,-2.6462,-2.6445,0,0,0,0,0,0,-2.562,-2.5649,-2.5679,-2.5769,-2.58,-2.5927,-2.5925,-2.5939,-2.5984,-2.5986,-2.6075,-2.6088,-2.613,-2.6222,-2.6241,-2.6271,-2.6239,-2.6455,-2.6458,-2.6461,-2.6443,-2.6446,-2.6449,0,0,0,0,0,-2.561,-2.5667,-2.568,-2.5704,-2.5839,-2.5928,-2.5946,-2.5994,-2.5986,-2.6016,-2.6068,-2.6086,-2.6255,-2.623,-2.6253,-2.6285,-2.6453,-2.6457,-2.6461,-2.6442,-2.6446,-2.6449,0,0,0,0,0,0,-2.5577,-2.5679,-2.5695,-2.5783,-2.5847,-2.5936,-2.5975,-2.5996,-2.6063,-2.6062,-2.6117,-2.6137,-2.6217,-2.626,-2.623,-2.6363,-2.6355,-2.6363,-2.6332,-2.6337,-2.634,-2.6327,-2.6246,0,0,0,0,0,-2.558,-2.5644,-2.5731,-2.5799,-2.5831,-2.5897,-2.5938,-2.597,-2.6038,-2.6064,-2.6122,-2.6187,-2.6255,-2.6299,-2.6366,-2.645,-2.647,-2.6484,-2.6486,-2.6489,-2.6495,-2.6542,-2.6549,-2.6475,-2.6475,-2.6475,0,0,-2.5586,-2.565,-2.5687,-2.5794,-2.5847,-2.5913,-2.592,-2.5988,-2.6037,-2.6075,-2.6158,-2.6203,-2.6279,-2.6363,-2.6404,-2.6401,-2.652,-2.6493,-2.6494,-2.65,-2.6547,-2.6554,-2.656,-2.6478,-2.6478,-2.6477,0,0,-2.563,-2.5686,-2.5749,-2.5803,-2.5884,-2.5928,-2.5943,-2.603,-2.6061,-2.6146,-2.6175,-2.6234,-2.635,-2.6403,-2.6445,-2.6511,-2.6529,-2.6531,-2.6546,-2.6592,-2.6598,-2.6603,-2.6626,-2.6634,-2.6538,-2.6538,-2.6538,0,-2.5628,-2.5728,-2.5779,-2.5847,-2.5893,-2.5931,-2.5995,-2.6045,-2.6143,-2.6173,-2.617,-2.6317,-2.6371,-2.6468,-2.6484,-2.6517,-2.6536,-2.6521,-2.6593,-2.6599,-2.6605,-2.6627,-2.6636,-2.6537,-2.6537,-2.6537,-2.6537,0,-2.572,-2.5789,-2.5831,-2.5926,-2.5976,-2.6042,-2.6103,-2.6148,-2.6175,-2.622,-2.6305,-2.6372,-2.6453,-2.6479,-2.6505,-2.658,-2.6576,-2.6582,-2.6574,-2.6611,-2.6633,-2.6642,-2.6537,-2.6537,-2.6537,-2.6537,0,0,-2.5747,-2.587,-2.5884,-2.5928,-2.602,-2.6074,-2.6142,-2.6222,-2.6259,-2.6326,-2.6384,-2.6482,-2.6488,-2.6536,-2.6569,-2.661,-2.6657,-2.6611,-2.6614,-2.6616,-2.6743,-2.6737,-2.6746,-2.6671,-2.6672,-2.6674,-2.6736,0,-2.5802,-2.5924,-2.5973,-2.6072,-2.6136,-2.6174,-2.6233,-2.6296,-2.6339,-2.64,-2.6448,-2.6516,-2.652,-2.6549,-2.6591,-2.6642,-2.6683,-2.6639,-2.6723,-2.6726,-2.6702,-2.6758,-2.6752,-2.6807,-2.6745,-2.6747,-2.6748,0,-2.5883,-2.5951,-2.6057,-2.6142,-2.6171,-2.6222,-2.63,-2.6358,-2.643,-2.6459,-2.6513,-2.6544,-2.6616,-2.6604,-2.6703,-2.6672,-2.671,-2.6741,-2.6744,-2.6753,-2.6738,-2.6767,-2.6826,-2.6834,-2.6762,-2.6761,-2.676,0,-2.589,-2.6009,-2.6087,-2.6124,-2.6225,-2.6261,-2.6304,-2.6375,-2.6421,-2.6489,-2.6519,-2.6594,-2.6634,-2.6692,-2.6742,-2.6729,-2.6836,-2.6829,-2.6862,-2.686,-2.6881,-2.6879,-2.6946,-2.6907,-2.6907,-2.6907,-2.6907,0,-2.5946,-2.6009,-2.6092,-2.614,-2.6212,-2.6267,-2.6336,-2.6383,-2.6446,-2.6503,-2.6541,-2.6594,-2.6658,-2.6719,-2.676,-2.6835,-2.6854,-2.6878,-2.6888,-2.6874,-2.6871,-2.6899,-2.6896,-2.6909,-2.6909,-2.6908,-2.6908,0,-2.5966,-2.6025,-2.6112,-2.6202,-2.6226,-2.6274,-2.6351,-2.6399,-2.6445,-2.6517,-2.6537,-2.6609,-2.6683,-2.674,-2.6836,-2.6863,-2.6942,-2.6953,-2.6918,-2.6923,-2.6952,-2.6948,-2.7038,-2.7053,-2.7005,-2.7005,-2.7005,0,-2.5998,-2.6047,-2.6142,-2.6184,-2.6227,-2.6294,-2.6341,-2.6397,-2.6444,-2.6531,-2.6568,-2.6645,-2.671,-2.6826,-2.6886,-2.696,-2.6972,-2.6999,-2.6983,-2.6968,-2.6972,-2.6968,-2.6973,-2.7,-2.7001,-2.7001,-2.7001,0,-2.6047,-2.6074,-2.614,-2.6216,-2.6271,-2.6334,-2.6398,-2.643,-2.6498,-2.6549,-2.6625,-2.6675,-2.6774,-2.685,-2.693,-2.6974,-2.6999,-2.7006,-2.7017,-2.7003,-2.698,-2.6992,-2.6922,-2.7003,-2.7003,-2.7003,-2.7002,-2.7002,-2.6073,-2.6119,-2.6193,-2.6265,-2.632,-2.6378,-2.6428,-2.648,-2.6546,-2.6631,-2.666,-2.6739,-2.681,-2.6921,-2.6966,-2.7028,-2.7029,-2.7045,-2.7049,-2.7052,-2.705,-2.6971,-2.7043,-2.7043,-2.7043,-2.7043,-2.7043,0,-2.6124,-2.6173,-2.624,-2.6328,-2.6385,-2.6405,-2.6476,-2.6522,-2.6591,-2.6656,-2.6719,-2.6807,-2.6881,-2.6948,-2.7025,-2.7062,-2.7075,-2.708,-2.7077,-2.7087,-2.7046,-2.7028,-2.7068,-2.7068,-2.7068,-2.7068,-2.7068,-2.7068,-2.6156,-2.6235,-2.627,-2.6375,-2.6425,-2.6503,-2.6542,-2.6596,-2.6649,-2.6745,-2.6807,-2.6851,-2.6916,-2.6998,-2.7067,-2.7085,-2.7111,-2.7113,-2.7133,-2.7093,-2.709,-2.7087,-2.707,-2.7118,-2.7118,-2.7169,-2.7169,-2.7169]},{"header":{"parameterUnit":"m.s-1","parameterCategory":1,"la1":30.2991,"la2":30.254,"lo1":-89.0895,"lo2":-89.0444,"dy":0.0017,"dx":0.0017,"nx":28,"ny":28,"refTime":"2025-04-30T03:00:00:Z","depth":0,"parameterNumber":3,"parameterNumberName":"V-component_of_WINDS"},"data":[0,0,0,0,0,0,0,0,0,0,0,0,0,0,0,0,0,0,0,0,0,0,0,0,0,0,0,0,0,0,0,0,0,0,0,0,0,0,0,0,0,0,0,0,0,0,0,0,0,0,0,0,0,0,0,0,0,0,3.9276,3.9278,0,3.9382,3.9384,3.9385,3.9371,3.9369,3.9367,3.9366,3.9469,3.9473,3.9477,0,0,0,0,0,0,0,0,0,0,0,0,0,3.9056,3.9061,3.9276,3.9278,3.9279,3.9382,3.9384,3.9385,3.9371,3.9369,3.9367,3.9365,3.9467,3.9473,3.9478,0,0,0,0,0,0,0,0,0,0,0,0,0,3.9156,3.9062,3.9276,3.9285,3.9286,3.9382,3.9384,3.9385,3.9371,3.9369,3.9366,3.9364,3.9466,3.9472,3.9479,3.9571,0,0,3.9499,3.9501,0,0,0,0,0,0,0,0,3.915,3.9164,3.9282,3.9284,3.9286,3.9361,3.9344,3.9447,3.9372,3.9339,3.9366,3.9363,3.9435,3.9444,3.9469,3.9576,3.958,3.9499,3.9503,3.9506,3.9508,0,0,0,0,0,0,0,3.9143,3.9159,3.9318,3.9284,3.9286,3.9281,3.9293,3.9363,3.94,3.9342,3.9341,3.9354,3.9435,3.9463,3.9471,3.9582,3.9499,3.9505,3.9509,3.9511,3.9768,3.9771,0,0,0,0,0,0,3.9135,3.9154,3.9315,3.9321,3.9211,3.9287,3.93,3.9339,3.9399,3.9406,3.9356,3.9353,3.9453,3.9464,3.9475,3.9587,3.9506,3.9512,3.9516,3.9765,3.9769,3.9772,0,0,0,0,0,0,3.913,3.915,3.931,3.9237,3.9258,3.9294,3.9338,3.9343,3.937,3.941,3.9416,3.9378,3.9451,3.9466,3.9547,3.959,3.9515,3.9521,3.9762,3.9767,3.9771,3.9811,0,0,0,0,0,0,3.9124,3.9148,3.9185,3.9238,3.9262,3.9383,3.9341,3.9347,3.9382,3.9379,3.9432,3.9438,3.945,3.9538,3.9554,3.9598,3.9526,3.9758,3.9764,3.9769,3.9806,3.9816,3.9825,0,0,0,0,0,3.9116,3.9191,3.9187,3.9206,3.9309,3.9385,3.9398,3.9412,3.9386,3.9422,3.9448,3.9436,3.9583,3.9546,3.9564,3.9611,3.9756,3.9762,3.9769,3.9802,3.9814,3.9824,0,0,0,0,0,0,3.914,3.9198,3.9194,3.9289,3.9332,3.9383,3.9429,3.9425,3.9476,3.9471,3.9484,3.9496,3.9579,3.9603,3.9561,3.9703,3.9665,3.9676,3.9684,3.9696,3.9705,3.9698,3.9531,0,0,0,0,0,3.9156,3.9215,3.9262,3.9341,3.9363,3.9393,3.9427,3.9434,3.9479,3.9497,3.9528,3.9571,3.9626,3.9662,3.9716,3.9809,3.982,3.985,3.9859,3.9867,3.9876,3.9926,3.994,3.9794,3.9794,3.9793,0,0,3.919,3.9229,3.9265,3.9347,3.9381,3.9441,3.9408,3.9472,3.9516,3.9506,3.9585,3.961,3.9658,3.9746,3.9786,3.9769,3.9918,3.9875,3.9881,3.9886,3.9934,3.9948,3.996,3.9798,3.9797,3.9796,0,0,3.9282,3.9318,3.9388,3.9424,3.9477,3.9496,3.9513,3.9564,3.958,3.9661,3.9654,3.9705,3.9801,3.9836,3.9866,3.9971,3.9962,3.9988,4.0037,4.0086,4.0097,4.0108,4.0145,4.0158,3.9996,3.9996,3.9996,0,3.9317,3.9408,3.9423,3.9489,3.9524,3.9519,3.9589,3.9622,3.9689,3.9713,3.9693,3.9813,3.9845,3.9941,3.9966,3.9991,4.0009,3.9982,4.0095,4.0105,4.0115,4.015,4.0164,3.9999,3.9999,3.9999,3.9998,0,3.9448,3.9511,3.9561,3.9628,3.9669,3.9736,3.9759,3.9798,3.9802,3.9822,3.9903,3.9942,4.0003,4.0026,4.0029,4.0122,4.011,4.0092,4.0055,4.0131,4.0165,4.0179,4.0003,4.0002,4.0001,4.0001,0,0,3.9558,3.9633,3.9651,3.9681,3.974,3.9788,3.9854,3.9915,3.9948,3.9995,4.005,4.0131,4.0115,4.0149,4.0156,4.0199,4.0279,4.0176,4.0177,4.0194,4.0383,4.0396,4.0411,4.0274,4.0277,4.0279,4.0379,0,3.9656,3.9775,3.979,3.9895,3.9953,3.9949,4.0006,4.0047,4.0068,4.0118,4.014,4.0198,4.0173,4.0193,4.0236,4.0261,4.0317,4.0254,4.0324,4.0326,4.0312,4.0429,4.0443,4.0536,4.0392,4.0394,4.0396,0,3.9786,3.9838,3.9949,3.9999,4.0024,4.0076,4.0133,4.0182,4.0228,4.024,4.0278,4.028,4.0346,4.0307,4.0398,4.0354,4.0383,4.04,4.0404,4.041,4.0366,4.0439,4.0566,4.0579,4.0417,4.0415,4.0414,0,3.9855,3.9952,4.0031,4.0057,4.0118,4.0154,4.0181,4.0224,4.026,4.0309,4.0332,4.0388,4.0418,4.0461,4.0476,4.0446,4.0567,4.0528,4.0577,4.0577,4.0603,4.0601,4.0736,4.0622,4.0622,4.0622,4.0621,0,3.9962,4.003,4.0063,4.0111,4.0187,4.0203,4.0277,4.0301,4.034,4.0392,4.0391,4.044,4.0458,4.0509,4.0522,4.0595,4.0608,4.0619,4.0621,4.0619,4.0618,4.0638,4.0632,4.0625,4.0625,4.0624,4.0623,0,4.0052,4.0077,4.0162,4.0213,4.0227,4.0281,4.0323,4.0369,4.039,4.0455,4.0472,4.0503,4.0563,4.0583,4.0655,4.0664,4.0749,4.0746,4.0734,4.0734,4.0782,4.0777,4.0935,4.0956,4.0829,4.083,4.0831,0,4.0119,4.0171,4.0228,4.0264,4.0292,4.0349,4.0386,4.0403,4.0441,4.0498,4.0537,4.0597,4.0645,4.0741,4.0769,4.0824,4.0822,4.0874,4.083,4.0826,4.0823,4.0819,4.0824,4.0882,4.0883,4.0884,4.0885,0,4.0235,4.0245,4.0299,4.0357,4.0401,4.0447,4.0492,4.0521,4.0544,4.0587,4.0649,4.0687,4.0761,4.082,4.0877,4.0902,4.0897,4.0898,4.0913,4.0911,4.0902,4.0907,4.0756,4.0895,4.0894,4.0893,4.0892,4.0892,4.0315,4.0361,4.0409,4.0469,4.0504,4.0546,4.0592,4.0618,4.0671,4.0734,4.074,4.0807,4.0851,4.0926,4.0954,4.1006,4.0991,4.1012,4.1017,4.1022,4.1025,4.0894,4.1016,4.1016,4.1015,4.1015,4.1015,0,4.0431,4.0461,4.0516,4.058,4.0626,4.0619,4.0668,4.0707,4.0767,4.0809,4.0857,4.0928,4.0985,4.1018,4.1075,4.111,4.1109,4.1124,4.1122,4.1127,4.1035,4.1017,4.1124,4.1124,4.1124,4.1124,4.1124,4.1124,4.0497,4.0575,4.059,4.0685,4.0714,4.0781,4.0809,4.0847,4.0881,4.0961,4.1009,4.1031,4.1068,4.1128,4.118,4.1188,4.1209,4.1225,4.1232,4.1145,4.1134,4.1123,4.1106,4.123,4.123,4.132,4.132,4.1321]}]]